sat.trackr.live / text

‹ back to catalog

STARLINK-35254

NORAD 65674 · 2025-211Y

PAYLOAD ACTIVE UNKNOWN

§ Identity

Operator
Country
US
Launch date
2025-09-19
Launch site
AFWTR
Launch vehicle
Mass (kg)
RCS (m²)

Purposes: comms

External: N2YO · Heavens-Above · Gunter

§ Orbital elements

Epoch: 2026-09-20T14:08:21.493824Z

Period
93.91 min
Inclination
97.2838°
Eccentricity
0.0000823
Mean motion
15.33460025 rev/d
Perigee alt
464.9 km
Apogee alt
466.1 km
Semi-major
6,843.6 km
B*
4.9470e-4
RAAN
303.7747°
Arg perigee
98.0035°
Mean anomaly
262.1301°
Rev number
5,653

§ Raw data

STARLINK-352541 65674U 25211Y   26263.58913766  .00015937  00000+0  49470-3 0  99942 65674  97.2838 303.7747 0000823  98.0035 262.1301 15.33460025 56539

JSON: /api/v1/satellites/65674 · /tle

For live sub-satellite position, see the globe view (requires WebGL).

§ Visibility from observer

Set your observer location to see the next 7 days of passes ≥ 10°. The values pass through the URL so the page stays shareable.

No JS? Fill the form by hand. The geolocation button needs JavaScript.